Simultaneous Nadir Overpasses (SNOs) Predictions

Prediction of SNOs between GOES-16 and TERRA Satellite Orbit:

Table of predicted SNOs for the next 14.0 days since TLE Epoch: 6/13/2025
Index Date Time (GOES-16) GOES-16 Lat,Lon TERRA Lat,Lon Distance(km) Time Diff (sec)
1 06/15/2025 16:21:26 0.03,-104.74 -0.04,-104.54 22.98 80
2 06/18/2025 04:19:12 -0.02,-104.69 -0.04,-104.69 2.54 80
3 06/20/2025 16:19:32 0.02,-104.69 0.02,-104.82 14.14 80
4 06/23/2025 04:22:36 -0.01,-104.65 -0.10,-104.96 36.34 80
5 06/25/2025 04:00:46 -0.00,-104.62 0.87,-100.35 485.60 80
6 06/25/2025 16:20:15 0.00,-104.64 0.09,-105.09 51.36 80
7 06/27/2025 16:03:44 -0.00,-104.62 -0.84,-100.47 471.17 80
